"datetime","# probes","# resolvers","can_ipv6","can_ipv6_prbs","can_tcp","can_tcp_prbs","can_tcp6","can_tcp6_prbs","does_ecs","does_ecs_prbs","does_flagday","does_flagday_prbs","does_rov4","does_rov4_prbs","does_rov6","does_rov6_prbs","does_qnamemin","doesnt_qnamemin","does_qnamemin_prbs","doesnt_qnamemin_prbs","does_nxdomain","doesnt_nxdomain","does_nxdomain_prbs","doesnt_nxdomain_prbs","has_ta_19036","hasnt_ta_19036","has_ta_19036_prbs","hasnt_ta_19036_prbs","has_ta_20326","hasnt_ta_20326","has_ta_20326_prbs","hasnt_ta_20326_prbs","can_rsamd5","cannot_rsamd5","broken_rsamd5","can_rsamd5_prbs","cannot_rsamd5_prbs","broken_rsamd5_prbs","can_dsa","cannot_dsa","broken_dsa","can_dsa_prbs","cannot_dsa_prbs","broken_dsa_prbs","can_rsasha1","cannot_rsasha1","broken_rsasha1","can_rsasha1_prbs","cannot_rsasha1_prbs","broken_rsasha1_prbs","can_dsansec3","cannot_dsansec3","broken_dsansec3","can_dsansec3_prbs","cannot_dsansec3_prbs","broken_dsansec3_prbs","can_rsansec3","cannot_rsansec3","broken_rsansec3","can_rsansec3_prbs","cannot_rsansec3_prbs","broken_rsansec3_prbs","can_rsasha256","cannot_rsasha256","broken_rsasha256","can_rsasha256_prbs","cannot_rsasha256_prbs","broken_rsasha256_prbs","can_rsasha512","cannot_rsasha512","broken_rsasha512","can_rsasha512_prbs","cannot_rsasha512_prbs","broken_rsasha512_prbs","can_eccgost","cannot_eccgost","broken_eccgost","can_eccgost_prbs","cannot_eccgost_prbs","broken_eccgost_prbs","can_ecdsa256","cannot_ecdsa256","broken_ecdsa256","can_ecdsa256_prbs","cannot_ecdsa256_prbs","broken_ecdsa256_prbs","can_ecdsa384","cannot_ecdsa384","broken_ecdsa384","can_ecdsa384_prbs","cannot_ecdsa384_prbs","broken_ecdsa384_prbs","can_ed25519","cannot_ed25519","broken_ed25519","can_ed25519_prbs","cannot_ed25519_prbs","broken_ed25519_prbs","can_ed448","cannot_ed448","broken_ed448","can_ed448_prbs","cannot_ed448_prbs","broken_ed448_prbs","can_gost","cannot_gost","broken_gost","can_gost_prbs","cannot_gost_prbs","broken_gost_prbs","can_sha384","cannot_sha384","broken_sha384","can_sha384_prbs","cannot_sha384_prbs","broken_sha384_prbs","is_internal","is_forwarding","is_external","is_internal_prbs","is_forwarding_prbs","is_external_prbs"
2017-06-20T23:59:59Z,133,260,260,133,260,133,258,133,0,14,0,0,0,0,0,0,1,259,1,132,0,260,0,133,0,0,0,0,0,0,0,0,252,5,3,125,13,12,260,0,0,133,18,0,260,0,0,133,11,0,260,0,0,133,19,0,260,0,0,133,11,0,260,0,0,133,11,0,260,0,0,133,10,0,3,256,1,4,130,1,260,0,0,133,10,0,260,0,0,133,11,0,0,259,1,0,132,1,0,259,1,0,132,1,3,256,1,12,130,1,260,0,0,133,11,0,240,0,20,121,7,25
2017-06-21T23:59:59Z,138,272,272,138,272,138,269,138,0,14,0,0,0,0,0,0,1,271,1,137,0,272,0,138,0,0,0,0,0,0,0,0,263,5,4,129,14,14,272,0,0,138,19,0,272,0,0,138,10,0,272,0,0,138,20,0,272,0,0,138,11,0,272,0,0,138,11,0,272,0,0,138,11,0,3,268,1,4,135,1,272,0,0,138,10,0,272,0,0,138,10,0,0,271,1,0,137,1,0,271,1,0,137,1,3,268,1,13,135,1,272,0,0,138,10,0,248,0,24,125,7,26
2017-06-22T23:59:59Z,138,273,273,138,273,138,269,138,1,14,0,0,0,0,0,0,1,272,1,137,0,273,0,138,0,0,0,0,0,0,0,0,264,5,4,129,13,14,273,0,0,138,19,0,271,2,0,137,11,0,273,0,0,138,19,0,273,0,0,138,10,0,272,1,0,137,10,0,272,1,0,137,10,0,4,268,1,5,135,1,271,2,0,137,11,0,271,2,0,137,11,0,0,272,1,0,137,1,0,272,1,0,137,1,3,269,1,13,135,1,272,1,0,138,11,0,246,1,26,123,8,26
2017-06-23T23:59:59Z,139,274,274,139,273,139,271,139,1,14,0,0,0,0,0,0,1,273,1,138,0,274,0,139,0,0,0,0,0,0,0,0,265,5,4,130,12,14,273,1,0,138,19,0,274,0,0,139,9,0,274,0,0,139,19,0,274,0,0,139,9,0,274,0,0,139,9,0,273,1,0,139,10,0,3,270,1,4,136,1,274,0,0,139,9,0,273,1,0,139,10,0,0,273,1,0,138,1,0,273,1,0,138,1,4,269,1,14,136,1,273,1,0,139,10,0,247,0,27,125,7,26
2017-06-24T23:59:59Z,138,272,272,138,271,138,266,138,0,13,0,0,0,0,0,0,1,271,1,137,0,272,0,138,0,0,0,0,0,0,0,0,262,6,4,129,13,14,271,1,0,138,19,0,272,0,0,138,9,0,272,0,0,138,18,0,272,0,0,138,9,0,272,0,0,138,9,0,271,1,0,138,10,0,3,268,1,4,135,1,271,1,0,138,10,0,271,1,0,138,10,0,0,271,1,0,137,1,0,271,1,0,137,1,3,268,1,13,135,1,272,0,0,138,9,0,246,0,26,124,7,26
2017-06-25T23:59:59Z,135,268,268,135,268,135,268,135,0,13,0,0,0,0,0,0,0,268,0,135,0,268,0,135,0,0,0,0,0,0,0,0,259,6,3,127,13,14,267,1,0,135,19,1,267,1,0,135,10,1,268,0,0,135,18,1,267,1,0,135,10,1,268,0,0,135,9,1,267,1,0,135,10,1,3,265,0,4,133,1,268,0,0,135,9,1,267,1,0,135,10,1,0,268,0,0,135,1,0,268,0,0,135,1,3,265,0,13,133,1,268,0,0,135,9,1,245,0,23,122,7,25
2017-06-26T23:59:59Z,138,271,271,138,271,138,254,137,0,14,0,0,0,0,0,0,1,270,1,137,0,271,0,138,0,0,0,0,0,0,0,0,262,5,4,129,13,14,271,0,0,138,20,0,271,0,0,138,10,0,271,0,0,138,20,0,271,0,0,138,10,0,271,0,0,138,11,0,271,0,0,138,10,0,3,267,1,4,135,1,271,0,0,138,10,0,271,0,0,138,10,0,0,270,1,0,137,1,0,270,1,0,137,1,3,267,1,13,135,1,271,0,0,138,11,0,247,0,24,125,8,26
2017-06-27T23:59:58Z,138,272,272,138,272,138,260,138,0,14,0,0,0,0,0,0,1,271,1,137,0,272,0,138,0,0,0,0,0,0,0,0,262,6,4,129,14,14,272,0,0,138,19,0,272,0,0,138,10,0,272,0,0,138,19,0,272,0,0,138,10,0,271,1,0,138,11,0,272,0,0,138,10,0,3,268,1,4,135,1,272,0,0,138,10,0,272,0,0,138,10,0,0,271,1,0,137,1,0,271,1,0,137,1,3,268,1,13,135,1,272,0,0,138,10,0,248,0,24,125,8,26
2017-06-28T23:59:58Z,139,275,275,139,275,139,268,139,1,14,0,0,0,0,0,0,2,273,2,137,0,275,0,139,0,0,0,0,0,0,0,0,264,6,5,129,14,16,274,1,0,139,20,1,274,1,0,138,10,1,275,0,0,139,19,0,274,1,0,139,11,1,274,1,0,139,11,1,275,0,0,139,10,1,4,269,2,5,135,3,273,2,0,138,11,1,274,1,0,138,10,1,0,273,2,1,137,2,0,273,2,0,137,3,3,270,2,13,135,3,273,2,0,138,11,1,247,1,27,124,8,26
2017-06-29T23:59:59Z,137,272,272,137,272,137,261,136,0,13,0,0,0,0,0,0,1,271,1,136,0,272,0,137,0,0,0,0,0,0,0,0,262,6,4,128,13,14,271,1,0,137,19,0,272,0,0,137,9,0,272,0,0,137,18,0,271,1,0,137,10,0,272,0,0,137,9,0,271,1,0,137,10,0,3,268,1,4,134,1,271,1,0,137,10,0,271,1,0,137,10,0,0,271,1,0,136,1,0,271,1,0,136,1,3,268,1,13,134,1,272,0,0,137,9,0,245,0,27,123,7,26
2017-06-30T23:59:59Z,138,273,273,138,273,138,266,138,0,14,0,0,0,0,0,0,1,272,1,137,0,273,0,138,0,0,0,0,0,0,0,0,264,5,4,129,12,15,273,0,0,138,19,1,273,0,0,138,9,1,273,0,0,138,20,1,273,0,0,138,10,1,273,0,0,138,10,1,273,0,0,138,9,1,3,269,1,4,135,2,273,0,0,138,9,1,273,0,0,138,10,1,0,272,1,0,137,2,0,272,1,0,137,2,3,269,1,14,135,2,273,0,0,138,9,1,245,0,28,123,7,27
2017-07-01T23:59:58Z,139,275,275,139,275,139,261,139,1,14,0,0,0,0,0,0,2,273,2,137,0,275,0,139,0,0,0,0,0,0,0,0,264,6,5,129,14,15,275,0,0,139,20,0,275,0,0,139,11,0,275,0,0,139,20,0,275,0,0,139,11,0,274,1,0,138,11,0,274,1,0,138,11,0,4,269,2,5,135,2,274,1,0,138,11,0,274,1,0,138,11,0,0,273,2,0,137,2,0,273,2,0,137,2,4,269,2,14,135,2,275,0,0,139,10,0,247,1,27,124,8,26
2017-07-02T23:59:59Z,140,278,278,140,278,140,263,139,0,13,0,0,0,0,0,0,2,276,2,138,0,278,0,140,0,0,0,0,0,0,0,0,267,6,5,130,13,16,278,0,0,140,18,1,278,0,0,140,10,1,278,0,0,140,19,1,278,0,0,140,10,1,278,0,0,140,10,1,278,0,0,140,10,1,3,273,2,4,136,3,278,0,0,140,10,1,278,0,0,140,10,1,0,276,2,0,138,3,0,276,2,0,138,3,3,273,2,13,136,3,278,0,0,140,9,1,248,0,30,125,7,27
2017-07-03T23:59:59Z,140,277,277,140,277,140,261,140,1,15,0,0,0,0,0,0,2,275,2,138,0,277,1,140,0,0,0,0,0,0,0,0,266,7,4,130,14,16,276,1,0,139,21,2,276,1,0,139,12,2,277,0,0,140,21,2,277,0,0,140,11,2,277,0,0,140,11,2,276,1,0,139,11,2,4,271,2,5,136,4,276,1,0,139,11,2,276,1,0,139,12,2,0,275,2,0,138,4,0,275,2,0,138,4,3,272,2,13,136,4,276,1,0,139,12,2,247,1,29,124,9,28
2017-07-04T23:59:59Z,143,280,280,143,280,143,258,143,1,15,0,0,0,0,0,0,1,279,1,142,0,280,1,143,0,0,0,0,0,0,0,0,269,7,4,133,15,16,278,2,0,142,21,2,279,1,0,143,12,2,280,0,0,143,20,2,280,0,0,143,11,2,280,0,0,143,11,2,280,0,0,143,11,2,4,275,1,5,140,3,279,1,0,143,12,2,280,0,0,143,11,2,0,279,1,0,142,3,0,279,1,0,142,3,3,276,1,13,140,3,279,1,0,143,12,2,251,1,28,127,9,28
2017-07-05T23:59:59Z,140,278,278,140,278,140,262,140,0,14,0,0,0,0,0,0,0,278,0,140,0,278,1,140,0,0,0,0,0,0,0,0,271,5,2,133,13,15,278,0,0,140,19,2,278,0,0,140,10,2,278,0,0,140,20,2,278,0,0,140,9,2,278,0,0,140,9,2,278,0,0,140,10,2,3,275,0,4,138,2,278,0,0,140,9,2,278,0,0,140,10,2,0,278,0,0,140,2,0,278,0,0,140,2,3,275,0,14,138,2,278,0,0,140,10,2,249,0,29,125,7,28
2017-07-06T23:59:59Z,142,282,282,142,282,142,243,141,1,15,0,0,0,0,0,0,0,282,0,142,0,282,1,142,0,0,0,0,0,0,0,0,274,6,2,134,14,14,281,1,0,141,21,1,281,1,0,141,11,1,282,0,0,142,21,1,282,0,0,142,11,1,282,0,0,142,11,1,281,1,0,141,10,1,4,278,0,5,140,1,281,1,0,141,11,1,281,1,0,141,10,1,0,282,0,0,142,1,0,282,0,0,142,1,3,279,0,14,140,1,281,1,0,141,10,1,251,1,30,126,8,28
2017-07-07T23:59:58Z,142,283,283,142,283,142,283,142,1,15,0,0,0,0,0,0,0,283,0,142,0,283,1,142,0,0,0,0,0,0,0,0,275,5,3,134,13,15,283,0,0,142,20,1,282,1,0,141,10,1,283,0,0,142,20,1,282,1,0,142,11,1,282,1,0,141,10,2,282,1,0,142,11,1,4,279,0,5,140,1,281,2,0,141,11,1,282,1,0,141,10,1,0,283,0,0,142,1,0,283,0,0,142,1,4,279,0,15,140,1,282,1,0,141,10,1,255,1,27,127,8,27
2017-07-08T23:59:59Z,142,284,284,142,284,142,284,142,0,14,0,0,0,0,0,0,0,284,0,142,0,284,1,142,0,0,0,0,0,0,0,0,275,6,3,134,13,15,283,1,0,142,20,1,284,0,0,142,9,1,284,0,0,142,19,1,284,0,0,142,9,1,283,1,0,142,10,1,283,1,0,142,10,1,3,281,0,4,140,1,283,1,0,142,10,1,283,1,0,142,10,1,0,284,0,0,142,1,0,284,0,0,142,1,3,281,0,14,140,1,284,0,0,142,9,1,257,0,27,128,7,27
2017-07-09T23:59:58Z,142,286,286,142,286,142,286,142,0,14,0,0,0,0,0,0,0,286,0,142,0,286,1,142,0,0,0,0,0,0,0,0,277,6,3,134,13,15,285,1,0,142,20,1,286,0,0,142,9,1,286,0,0,142,18,1,285,1,0,142,10,1,285,1,0,142,10,1,286,0,0,142,9,1,3,283,0,4,140,1,286,0,0,142,9,1,286,0,0,142,9,1,0,286,0,0,142,1,0,286,0,0,142,1,3,283,0,14,140,1,286,0,0,142,9,1,259,0,27,128,7,27
2017-07-10T23:59:58Z,146,291,291,146,291,146,290,146,1,16,0,0,0,0,0,0,0,291,0,146,0,291,1,146,0,0,0,0,0,0,0,0,281,7,3,137,15,17,289,2,0,145,23,1,290,1,0,145,11,1,291,0,0,146,22,1,290,1,0,146,12,1,289,2,0,145,12,1,290,1,0,145,11,1,4,287,0,5,144,1,289,2,0,145,12,1,290,1,0,145,11,1,0,291,0,0,146,1,0,291,0,0,146,1,3,288,0,15,144,1,289,2,0,145,12,1,264,1,26,131,10,27
2017-07-11T23:59:59Z,143,285,285,143,285,143,285,143,0,14,0,0,0,0,0,0,0,285,0,143,0,285,1,143,0,0,0,0,0,0,0,0,277,5,3,135,13,15,285,0,0,143,19,1,285,0,0,143,9,1,285,0,0,143,20,1,285,0,0,143,10,1,285,0,0,143,9,1,285,0,0,143,10,1,3,282,0,4,141,1,285,0,0,143,10,1,285,0,0,143,10,1,0,285,0,0,143,1,0,285,0,0,143,1,3,282,0,14,141,1,285,0,0,143,9,1,258,0,27,129,7,27
2017-07-12T23:59:59Z,142,282,282,142,282,142,282,142,0,14,0,0,0,0,0,0,0,282,0,142,0,282,1,142,0,0,0,0,0,0,0,0,274,5,3,134,12,15,282,0,0,142,20,1,282,0,0,142,10,1,282,0,0,142,20,1,282,0,0,142,9,1,282,0,0,142,9,1,282,0,0,142,9,1,3,279,0,4,140,1,282,0,0,142,9,1,282,0,0,142,9,1,0,282,0,0,142,1,0,282,0,0,142,1,3,279,0,14,140,1,282,0,0,142,10,1,255,0,27,128,7,27
2017-07-13T23:59:57Z,140,278,278,140,278,140,278,140,0,14,0,0,0,0,0,0,0,278,0,140,0,278,1,140,0,0,0,0,0,0,0,0,270,5,3,132,13,15,278,0,0,140,21,1,278,0,0,140,11,1,278,0,0,140,21,1,278,0,0,140,10,1,278,0,0,140,11,1,278,0,0,140,10,1,3,275,0,4,138,1,278,0,0,140,11,1,278,0,0,140,11,1,0,278,0,0,140,1,0,278,0,0,140,1,3,275,0,14,138,1,278,0,0,140,10,1,250,0,28,125,8,28
2017-07-14T23:59:59Z,142,281,281,142,281,142,281,142,0,14,0,0,0,0,0,0,0,281,0,142,0,281,1,142,0,0,0,0,0,0,0,0,272,5,4,133,13,16,280,1,0,142,21,1,281,0,0,142,10,1,281,0,0,142,20,1,280,1,0,142,11,1,281,0,0,142,10,1,280,1,0,142,11,1,3,278,0,4,140,1,280,1,0,142,11,1,281,0,0,142,10,1,0,281,0,0,142,1,0,281,0,0,142,1,3,278,0,14,140,1,281,0,0,142,10,1,254,0,27,127,8,28
2017-07-15T23:59:59Z,140,277,277,140,277,140,277,140,0,14,0,0,0,0,0,0,1,276,1,139,0,277,0,140,0,0,0,0,0,0,0,0,267,5,5,131,13,15,276,1,0,140,20,0,276,1,0,140,10,0,277,0,0,140,19,0,277,0,0,140,9,0,277,0,0,140,9,0,276,1,0,140,10,0,3,273,1,4,137,1,276,1,0,140,10,0,276,1,0,140,10,0,0,276,1,0,139,1,0,276,1,0,139,1,3,273,1,13,137,1,277,0,0,140,9,0,250,0,27,125,8,27
2017-07-16T23:59:59Z,140,277,277,140,277,140,277,140,0,15,0,0,0,0,0,0,1,276,1,139,0,277,0,140,0,0,0,0,0,0,0,0,267,5,5,130,13,16,277,0,0,140,19,0,277,0,0,140,10,0,277,0,0,140,20,0,277,0,0,140,9,0,277,0,0,140,9,0,277,0,0,140,10,0,3,273,1,4,137,1,277,0,0,140,9,0,277,0,0,140,9,0,0,276,1,0,139,1,0,276,1,0,139,1,3,273,1,15,137,1,277,0,0,140,10,0,249,0,28,125,8,28
2017-07-17T23:59:59Z,140,274,274,140,274,140,274,140,0,15,0,0,0,0,0,0,1,273,1,139,0,274,0,140,0,0,0,0,0,0,0,0,264,5,5,130,13,16,274,0,0,140,19,0,274,0,0,140,10,0,274,0,0,140,20,0,274,0,0,140,10,0,274,0,0,140,10,0,274,0,0,140,10,0,3,270,1,4,137,1,274,0,0,140,9,0,274,0,0,140,9,0,0,273,1,0,139,1,0,273,1,0,139,1,3,270,1,15,137,1,274,0,0,140,10,0,247,0,27,125,8,28
2017-07-18T23:59:59Z,139,275,275,139,275,139,274,139,0,15,0,0,0,0,0,0,1,274,1,138,0,275,0,139,0,0,0,0,0,0,0,0,265,6,4,130,13,15,275,0,0,139,19,0,274,1,0,139,10,0,275,0,0,139,19,0,275,0,0,139,9,0,274,1,0,139,10,0,275,0,0,139,9,0,3,271,1,4,136,1,275,0,0,139,9,0,275,0,0,139,9,0,0,274,1,0,138,1,0,274,1,0,138,1,3,271,1,15,136,1,275,0,0,139,9,0,247,0,28,124,8,28
2017-07-19T23:59:59Z,137,272,272,137,272,137,272,137,0,14,0,0,0,0,0,0,0,272,0,137,0,272,0,137,0,0,0,0,0,0,0,0,263,5,4,128,14,15,272,0,0,137,21,0,272,0,0,137,10,0,272,0,0,137,21,0,272,0,0,137,11,0,272,0,0,137,10,0,272,0,0,137,10,0,3,269,0,4,135,0,272,0,0,137,11,0,272,0,0,137,11,0,0,272,0,0,137,0,0,272,0,0,137,0,3,269,0,14,135,0,272,0,0,137,10,0,244,0,28,122,8,28
2017-07-20T23:59:59Z,139,273,273,139,273,139,272,139,0,15,0,0,0,0,0,0,0,273,0,139,0,273,0,139,0,0,0,0,0,0,0,0,264,5,4,130,14,15,273,0,0,139,20,0,273,0,0,139,10,0,273,0,0,139,21,0,273,0,0,139,10,0,273,0,0,139,10,0,273,0,0,139,11,0,3,270,0,4,137,0,273,0,0,139,11,0,273,0,0,139,11,0,0,273,0,0,139,0,0,273,0,0,139,0,3,270,0,14,137,0,273,0,0,139,10,0,246,0,27,124,8,28
2017-07-21T23:59:58Z,140,275,275,140,275,140,275,140,1,16,0,0,0,0,0,0,1,274,1,139,0,275,0,140,0,0,0,0,0,0,0,0,264,6,5,129,15,16,275,0,0,140,23,0,274,1,0,139,13,0,275,0,0,140,23,0,275,0,0,140,12,0,275,0,0,140,12,0,275,0,0,140,13,0,4,270,1,5,137,1,274,1,0,139,12,0,274,1,0,139,13,0,0,274,1,0,139,1,0,274,1,0,139,1,3,271,1,14,137,1,275,0,0,140,12,0,246,1,28,124,9,29
2017-07-22T23:59:59Z,139,274,274,139,274,139,273,139,0,15,0,0,0,0,0,0,1,273,1,138,0,274,0,139,0,0,0,0,0,0,0,0,263,6,5,129,15,16,274,0,0,139,20,0,274,0,0,139,10,0,274,0,0,139,20,0,273,1,0,139,11,0,274,0,0,139,10,0,274,0,0,139,10,0,3,270,1,4,136,1,273,1,0,139,11,0,274,0,0,139,10,0,0,273,1,0,138,1,0,273,1,0,138,1,3,270,1,14,136,1,273,1,0,139,11,0,246,0,28,124,8,28
2017-07-23T23:59:59Z,139,273,273,139,273,139,273,139,0,14,0,0,0,0,0,0,1,272,1,138,0,273,0,139,0,0,0,0,0,0,0,0,264,5,4,130,14,15,273,0,0,139,21,0,273,0,0,139,11,0,273,0,0,139,21,0,273,0,0,139,11,0,273,0,0,139,10,0,273,0,0,139,11,0,3,269,1,4,136,1,273,0,0,139,11,0,273,0,0,139,11,0,0,272,1,0,138,1,0,272,1,0,138,1,3,269,1,14,136,1,273,0,0,139,11,0,245,0,28,124,8,28
2017-07-24T23:59:59Z,140,274,274,140,274,140,274,140,0,14,0,0,0,0,0,0,1,273,1,139,0,274,0,140,0,0,0,0,0,0,0,0,264,5,5,130,14,16,274,0,0,140,20,0,274,0,0,140,11,0,274,0,0,140,21,0,274,0,0,140,11,0,274,0,0,140,10,0,274,0,0,140,10,0,3,270,1,4,137,1,274,0,0,140,10,0,274,0,0,140,10,0,0,273,1,0,139,1,0,273,1,0,139,1,3,270,1,14,137,1,274,0,0,140,10,0,246,0,28,125,8,28
2017-07-25T23:59:58Z,141,276,276,141,276,141,275,141,0,16,0,0,0,0,0,0,1,275,1,140,0,276,0,141,0,0,0,0,0,0,0,0,266,5,5,131,16,16,276,0,0,141,22,0,276,0,0,141,11,0,276,0,0,141,22,0,276,0,0,141,11,0,276,0,0,141,11,0,276,0,0,141,11,0,3,272,1,4,138,1,276,0,0,141,11,0,276,0,0,141,12,0,0,275,1,0,140,1,0,275,1,0,140,1,3,272,1,14,138,1,276,0,0,141,12,0,248,0,28,126,8,29
2017-07-26T23:59:59Z,141,275,275,141,275,141,274,141,0,15,0,0,0,0,0,0,1,274,1,140,0,275,0,141,0,0,0,0,0,0,0,0,265,5,5,131,16,16,275,0,0,141,22,0,275,0,0,141,12,0,275,0,0,141,22,0,275,0,0,141,11,0,275,0,0,141,11,0,275,0,0,141,11,0,3,271,1,4,138,1,275,0,0,141,12,0,275,0,0,141,11,0,0,274,1,0,140,1,0,274,1,0,140,1,3,271,1,14,138,1,275,0,0,141,11,0,247,0,28,126,8,29
2017-07-27T23:59:59Z,139,272,272,139,272,139,272,139,1,15,0,0,0,0,0,0,1,271,1,138,0,272,1,139,0,0,0,0,0,0,0,0,262,6,4,129,15,15,271,1,0,139,22,1,271,1,0,139,12,0,272,0,0,139,21,1,271,1,0,139,12,0,271,1,0,139,12,0,272,0,0,139,11,0,4,267,1,5,136,2,270,2,0,138,12,0,271,1,0,138,11,0,0,271,1,0,138,1,0,271,1,0,138,1,4,267,1,16,136,1,271,1,0,139,12,1,244,1,27,123,9,28
2017-07-28T23:59:59Z,138,270,270,138,270,138,270,138,0,14,0,0,0,0,0,0,0,270,0,138,0,270,0,138,0,0,0,0,0,0,0,0,261,5,4,129,13,15,270,0,0,138,18,0,269,1,0,138,10,0,270,0,0,138,19,0,270,0,0,138,9,0,269,1,0,138,10,0,270,0,0,138,9,0,3,267,0,4,136,0,269,1,0,138,10,0,269,1,0,138,10,0,0,270,0,0,138,0,0,270,0,0,138,0,3,267,0,14,136,0,270,0,0,138,9,0,243,0,27,123,8,28
2017-07-29T23:59:59Z,137,268,268,137,268,137,268,137,0,13,0,0,0,0,0,0,0,268,0,137,0,268,0,137,0,0,0,0,0,0,0,0,258,6,4,128,14,14,268,0,0,137,18,0,267,1,0,137,10,0,268,0,0,137,18,0,267,1,0,137,10,1,268,0,0,137,9,0,268,0,0,137,9,0,3,265,0,4,135,0,267,1,0,137,10,0,268,0,0,137,9,0,0,268,0,0,137,0,0,268,0,0,137,0,3,265,0,13,135,1,268,0,0,137,9,0,241,0,27,122,8,27
2017-07-30T23:59:59Z,137,268,268,137,268,137,268,137,0,14,0,0,0,0,0,0,0,268,0,137,0,268,0,137,0,0,0,0,0,0,0,0,259,5,4,128,15,14,268,0,0,137,19,0,268,0,0,137,11,0,268,0,0,137,20,0,268,0,0,137,10,0,268,0,0,137,10,0,268,0,0,137,11,0,3,265,0,4,135,0,268,0,0,137,11,0,268,0,0,137,10,0,0,268,0,0,137,0,0,268,0,0,137,0,3,265,0,13,135,0,268,0,0,137,10,0,240,0,28,122,8,28
2017-07-31T23:59:59Z,137,269,269,137,269,137,269,137,0,13,0,0,0,0,0,0,0,269,0,137,0,269,0,137,0,0,0,0,0,0,0,0,259,6,4,128,15,14,268,1,0,137,20,0,268,1,0,137,11,0,269,0,0,137,19,0,268,1,0,137,11,0,269,0,0,137,10,0,269,0,0,137,10,0,3,266,0,4,135,0,269,0,0,137,10,0,268,1,0,137,11,0,0,269,0,0,137,0,0,269,0,0,137,0,3,266,0,13,135,0,268,1,0,137,11,0,241,0,28,122,8,27
2017-08-01T23:59:59Z,136,267,267,136,267,136,267,136,0,13,0,0,0,0,0,0,1,266,1,135,0,267,0,136,0,0,0,0,0,0,0,0,258,5,4,127,14,14,267,0,0,136,19,0,267,0,0,136,9,0,267,0,0,136,19,0,267,0,0,136,10,0,267,0,0,136,9,0,267,0,0,136,9,0,3,263,1,4,133,1,267,0,0,136,9,0,267,0,0,136,10,1,0,266,1,0,135,1,0,266,1,0,135,2,3,263,1,13,133,1,267,0,0,136,9,0,240,0,27,122,7,26
2017-08-02T23:59:59Z,134,263,263,134,263,134,263,134,0,13,0,0,0,0,0,0,1,262,1,133,0,263,0,134,0,0,0,0,0,0,0,0,255,5,3,126,13,13,263,0,0,134,19,0,263,0,0,134,9,0,263,0,0,134,19,0,263,0,0,134,9,0,263,0,0,134,9,0,263,0,0,134,9,0,3,259,1,4,131,1,263,0,0,134,10,0,263,0,0,134,10,0,0,262,1,0,133,1,0,262,1,0,133,1,3,259,1,13,131,1,263,0,0,134,10,0,236,0,27,120,7,26
2017-08-03T23:59:59Z,137,266,266,137,266,137,266,137,0,13,0,0,0,0,0,0,1,265,1,136,0,266,0,137,0,0,0,0,0,0,0,0,257,5,4,128,13,14,266,0,0,137,18,0,266,0,0,137,9,0,266,0,0,137,19,0,266,0,0,137,10,0,266,0,0,137,9,0,266,0,0,137,10,0,3,262,1,4,134,1,266,0,0,137,10,0,266,0,0,137,9,0,0,265,1,0,136,1,0,265,1,0,136,1,3,262,1,13,134,1,266,0,0,137,10,0,239,0,27,123,7,26
2017-08-04T23:59:58Z,137,267,267,137,267,137,266,137,0,13,0,0,0,0,0,0,1,266,1,136,0,267,0,137,0,0,0,0,0,0,0,0,258,5,4,128,13,14,267,0,0,137,18,0,266,1,0,137,10,0,267,0,0,137,18,0,266,1,0,137,10,0,267,0,0,137,9,0,267,0,0,137,9,0,3,263,1,4,134,1,266,1,0,137,10,0,267,0,0,137,9,0,0,266,1,0,136,1,0,266,1,0,136,1,3,263,1,13,134,1,266,1,0,137,10,0,240,0,27,123,7,26
2017-08-05T23:59:59Z,137,267,267,137,267,137,267,137,1,14,0,0,0,0,0,0,1,266,1,136,0,267,0,137,0,0,0,0,0,0,0,0,257,6,4,127,15,14,266,1,0,136,20,0,266,1,0,136,11,0,267,0,0,137,20,0,267,0,0,137,10,0,267,0,0,137,11,0,267,0,0,137,11,0,4,262,1,5,134,1,267,0,0,137,11,0,267,0,0,137,11,0,0,266,1,0,136,1,0,266,1,0,136,1,3,263,1,13,134,1,266,1,0,136,11,0,239,1,27,122,8,26
2017-08-06T23:59:58Z,135,265,265,135,265,135,265,135,0,14,0,0,0,0,0,0,0,265,0,135,0,265,0,135,0,0,0,0,0,0,0,0,258,5,2,128,14,13,265,0,0,135,19,0,264,1,0,135,11,0,265,0,0,135,19,0,265,0,0,135,10,0,264,1,0,135,11,0,264,1,0,135,11,0,3,262,0,4,133,0,264,1,0,135,11,0,265,0,0,135,10,0,0,265,0,0,135,0,0,265,0,0,135,0,3,262,0,14,133,0,264,1,0,135,11,0,239,0,26,121,6,26
2017-08-07T23:59:59Z,136,265,265,136,265,136,264,136,0,14,0,0,0,0,0,0,0,265,0,136,0,265,0,136,0,0,0,0,0,0,0,0,256,6,3,128,15,14,265,0,0,136,19,0,265,0,0,136,10,0,265,0,0,136,19,0,265,0,0,136,10,0,264,1,0,136,11,0,264,1,0,136,11,0,3,262,0,4,134,0,264,1,0,136,11,0,264,1,0,136,11,0,0,265,0,0,136,0,0,265,0,0,136,0,3,262,0,14,134,0,265,0,0,136,10,0,240,0,25,122,6,26
2017-08-08T23:59:59Z,138,269,269,138,269,138,269,138,0,15,0,0,0,0,0,0,1,268,1,137,0,269,0,138,0,0,0,0,0,0,0,0,260,5,4,129,15,15,269,0,0,138,20,0,268,1,0,138,12,0,269,0,0,138,20,0,269,0,0,138,11,0,269,0,0,138,11,0,268,1,0,138,12,0,3,265,1,4,135,1,269,0,0,138,11,0,268,1,0,138,12,0,0,268,1,0,137,1,0,268,1,0,137,1,3,265,1,14,135,1,269,0,0,138,11,0,241,0,28,123,7,27
2017-08-09T23:59:59Z,137,268,268,137,268,137,267,137,0,15,0,0,0,0,0,0,1,267,1,136,0,268,0,137,0,0,0,0,0,0,0,0,259,6,3,129,17,14,267,1,0,137,22,0,268,0,0,137,12,0,268,0,0,137,21,0,268,0,0,137,12,0,267,1,0,137,13,0,268,0,0,137,12,0,3,264,1,4,134,1,267,1,0,137,13,0,268,0,0,137,12,0,0,267,1,0,136,1,0,267,1,0,136,1,3,264,1,14,134,1,268,0,0,137,12,0,240,0,28,122,8,29
2017-08-10T23:59:58Z,136,264,264,136,264,136,264,136,0,14,0,0,0,0,0,0,1,263,1,135,0,264,0,136,0,0,0,0,0,0,0,0,254,5,5,126,15,17,264,0,0,136,20,1,264,0,0,136,11,0,264,0,0,136,20,0,264,0,0,136,11,0,263,1,0,136,12,0,263,1,0,136,12,0,3,260,1,4,133,1,264,0,0,136,11,0,263,1,0,136,12,0,0,263,1,0,135,1,0,263,1,0,135,1,3,260,1,14,133,1,264,0,0,136,11,0,235,0,29,120,7,28
2017-08-11T23:59:59Z,136,263,263,136,263,136,263,136,0,13,0,0,0,0,0,0,1,262,1,135,0,263,0,136,0,0,0,0,0,0,0,0,251,6,6,126,16,15,263,0,0,136,19,0,262,1,0,136,12,0,263,0,0,136,19,0,263,0,0,136,11,0,262,1,0,136,12,0,263,0,0,136,11,0,3,259,1,4,133,1,263,0,0,136,11,0,263,0,0,136,11,0,0,262,1,0,135,1,0,262,1,0,135,1,3,259,1,13,133,1,263,0,0,136,11,0,235,0,28,120,6,28
2017-08-12T23:59:59Z,139,264,264,139,264,139,264,139,1,15,0,0,0,0,0,0,1,263,1,138,0,264,0,139,0,0,0,0,0,0,0,0,254,5,5,129,17,16,264,0,0,139,22,1,264,0,0,139,14,1,264,0,0,139,22,1,264,0,0,139,14,1,264,0,0,139,14,1,264,0,0,139,14,1,4,259,1,5,136,2,263,1,0,138,13,1,263,1,0,138,14,1,0,263,1,0,138,2,0,263,1,0,138,2,3,260,1,13,136,2,263,1,0,138,14,0,235,1,28,122,8,29
2017-08-13T23:59:59Z,138,266,266,138,266,138,266,138,0,14,0,0,0,0,0,0,1,265,1,137,0,266,0,138,0,0,0,0,0,0,0,0,255,6,5,128,15,15,266,0,0,138,20,0,266,0,0,138,12,0,266,0,0,138,20,0,266,0,0,138,12,0,266,0,0,138,12,0,266,0,0,138,11,0,2,263,1,3,135,1,266,0,0,138,12,0,266,0,0,138,11,0,0,265,1,0,137,1,0,265,1,0,137,1,2,263,1,12,135,1,266,0,0,138,12,0,237,0,29,122,6,28
2017-08-14T23:59:59Z,140,270,270,140,270,140,270,140,0,13,0,0,0,0,0,0,1,269,1,139,0,270,0,140,0,0,0,0,0,0,0,0,260,5,5,130,14,15,270,0,0,140,18,0,269,1,0,140,11,0,270,0,0,140,18,0,270,0,0,140,10,0,270,0,0,140,10,0,270,0,0,140,10,0,2,267,1,3,137,1,270,0,0,140,10,0,269,1,0,140,11,0,0,269,1,0,139,1,0,269,1,0,139,1,2,267,1,12,137,1,270,0,0,140,10,0,241,0,29,124,6,27
2017-08-15T23:59:58Z,142,277,277,142,277,142,277,142,0,13,0,0,0,0,0,0,1,276,1,141,0,277,0,142,0,0,0,0,0,0,0,0,267,5,5,132,14,15,277,0,0,142,18,0,277,0,0,142,11,0,277,0,0,142,19,0,277,0,0,142,11,0,277,0,0,142,11,0,277,0,0,142,11,0,2,274,1,3,139,1,277,0,0,142,11,0,277,0,0,142,11,0,0,276,1,0,141,1,0,276,1,0,141,1,2,274,1,12,139,1,277,0,0,142,10,0,247,0,30,126,6,27
2017-08-16T23:59:58Z,143,278,278,143,278,143,278,143,1,14,0,0,0,0,0,0,1,277,1,142,0,278,1,143,0,0,0,0,0,0,0,0,266,7,5,132,17,15,276,2,0,142,21,0,277,1,0,142,12,0,278,0,0,143,20,0,278,0,0,143,12,0,277,1,0,143,13,0,278,0,0,143,12,0,3,274,1,4,140,1,278,0,0,143,12,0,278,0,0,143,12,0,0,277,1,1,142,1,0,277,1,0,142,1,3,274,1,13,140,1,276,2,0,142,13,0,248,1,29,126,8,28
2017-08-17T23:59:58Z,143,278,278,143,278,143,278,143,1,14,0,0,0,0,0,0,1,277,1,142,0,278,0,143,0,0,0,0,0,0,0,0,268,5,5,133,15,15,277,1,0,143,21,0,278,0,0,143,11,0,278,0,0,143,20,0,278,0,0,143,11,0,277,1,0,142,11,0,277,1,0,142,11,0,3,274,1,4,140,1,277,1,0,142,11,0,277,1,0,142,11,0,0,277,1,0,142,1,0,277,1,0,142,1,2,275,1,12,140,1,277,1,0,142,11,0,248,1,29,126,8,27
2017-08-18T23:59:57Z,142,279,279,142,279,142,279,142,0,14,0,0,0,0,0,0,1,278,1,141,0,279,0,142,0,0,0,0,0,0,0,0,268,6,5,132,16,15,278,1,0,142,21,0,278,1,0,142,12,0,279,0,0,142,20,0,279,0,0,142,11,0,278,1,0,142,12,0,278,1,0,142,12,0,2,276,1,3,139,1,279,0,0,142,11,0,279,0,0,142,11,0,0,278,1,0,141,1,0,278,1,0,141,1,2,276,1,12,139,1,278,1,0,142,12,0,250,0,29,126,7,28